Time,TemperatureF,DewpointF,PressureIn,WindDirection,WindDirectionDegrees,WindSpeedMPH,WindSpeedGustMPH,Humidity,HourlyPrecipIn,Conditions,Clouds,dailyrainin,SoftwareType,DateUTC
2013-07-31 00:01:00,70.7,69.8,29.32,NW,315,0.0,1.1,97,0.00,,---,0.00,VWS V14.01,2013-07-31 05:01:00,
2013-07-31 00:07:00,70.7,69.8,29.32,NW,315,1.3,2.0,97,0.00,,---,0.00,VWS V14.01,2013-07-31 05:07:00,
2013-07-31 00:12:00,70.7,69.8,29.32,East,90,2.5,2.5,97,0.00,,---,0.00,VWS V14.01,2013-07-31 05:12:00,
2013-07-31 00:17:00,70.7,69.8,29.32,East,90,0.0,0.0,97,0.00,,---,0.00,VWS V14.01,2013-07-31 05:17:00,
2013-07-31 00:22:00,70.7,69.8,29.32,East,90,0.0,0.0,97,0.00,,---,0.00,VWS V14.01,2013-07-31 05:22:00,
2013-07-31 00:27:00,70.7,69.8,29.32,East,90,0.0,0.0,97,0.00,,---,0.00,VWS V14.01,2013-07-31 05:27:00,
2013-07-31 00:32:00,70.7,69.8,29.32,East,90,0.0,0.0,97,0.00,,---,0.00,VWS V14.01,2013-07-31 05:32:00,
2013-07-31 00:37:00,70.7,69.8,29.32,East,90,0.0,0.0,97,0.00,,---,0.00,VWS V14.01,2013-07-31 05:37:00,
2013-07-31 00:42:00,70.9,70.0,29.32,East,90,0.0,0.0,97,0.00,,---,0.00,VWS V14.01,2013-07-31 05:42:00,
2013-07-31 00:47:00,70.9,70.0,29.32,East,90,0.0,0.0,97,0.00,,---,0.00,VWS V14.01,2013-07-31 05:47:00,
2013-07-31 00:52:00,70.9,70.0,29.32,East,90,0.0,0.0,97,0.00,,---,0.00,VWS V14.01,2013-07-31 05:52:00,
2013-07-31 00:57:00,70.9,70.3,29.32,NNE,22,1.1,1.1,98,0.00,,---,0.00,VWS V14.01,2013-07-31 05:57:00,
2013-07-31 01:02:00,70.7,70.1,29.32,NNE,22,0.0,0.0,98,0.00,,---,0.00,VWS V14.01,2013-07-31 06:02:00,
2013-07-31 01:07:00,70.9,70.3,29.32,WNW,292,0.0,0.0,98,0.04,,---,0.04,VWS V14.01,2013-07-31 06:07:00,
2013-07-31 01:12:00,70.9,70.3,29.32,East,90,2.0,2.2,98,0.16,,---,0.16,VWS V14.01,2013-07-31 06:12:00,
2013-07-31 01:17:00,70.7,70.1,29.32,East,90,1.6,1.6,98,0.16,,---,0.16,VWS V14.01,2013-07-31 06:17:00,
2013-07-31 01:22:00,70.7,70.1,29.32,East,90,0.0,0.0,98,0.16,,---,0.16,VWS V14.01,2013-07-31 06:22:00,
2013-07-31 01:27:00,70.5,69.9,29.32,WNW,292,0.0,0.0,98,0.16,,---,0.16,VWS V14.01,2013-07-31 06:27:00,
2013-07-31 01:32:00,70.5,69.9,29.32,West,270,2.5,4.9,98,0.21,,---,0.21,VWS V14.01,2013-07-31 06:32:00,
2013-07-31 01:37:00,70.2,69.6,29.32,West,270,2.0,2.0,98,0.33,,---,0.33,VWS V14.01,2013-07-31 06:37:00,
2013-07-31 01:42:00,69.6,69.0,29.35,East,90,3.1,3.1,98,0.54,,---,0.54,VWS V14.01,2013-07-31 06:42:00,
2013-07-31 01:47:00,69.6,69.0,29.35,East,90,2.0,2.7,98,0.58,,---,0.58,VWS V14.01,2013-07-31 06:47:00,
2013-07-31 01:52:00,68.4,67.5,29.35,East,90,0.0,0.0,97,0.58,,---,0.58,VWS V14.01,2013-07-31 06:52:00,
2013-07-31 01:57:00,68.0,67.1,29.32,East,90,0.0,0.0,97,0.58,,---,0.58,VWS V14.01,2013-07-31 06:57:00,
2013-07-31 02:02:00,68.0,67.1,29.32,East,90,0.0,0.0,97,0.58,,---,0.58,VWS V14.01,2013-07-31 07:02:00,
2013-07-31 02:07:00,67.8,67.2,29.32,East,90,0.0,0.0,98,0.54,,---,0.58,VWS V14.01,2013-07-31 07:07:00,
2013-07-31 02:12:00,67.8,67.2,29.32,East,90,0.0,0.0,98,0.46,,---,0.58,VWS V14.01,2013-07-31 07:12:00,
2013-07-31 02:17:00,67.8,67.2,29.32,East,90,0.0,0.0,98,0.46,,---,0.62,VWS V14.01,2013-07-31 07:17:00,
2013-07-31 02:22:00,67.8,67.2,29.32,East,90,0.0,0.0,98,0.46,,---,0.62,VWS V14.01,2013-07-31 07:22:00,
2013-07-31 02:27:00,67.8,67.2,29.32,East,90,0.0,0.0,98,0.46,,---,0.62,VWS V14.01,2013-07-31 07:27:00,
2013-07-31 02:32:00,67.8,67.2,29.32,East,90,0.0,0.0,98,0.41,,---,0.62,VWS V14.01,2013-07-31 07:32:00,
2013-07-31 02:37:00,67.8,67.2,29.32,East,90,0.0,0.0,98,0.29,,---,0.62,VWS V14.01,2013-07-31 07:37:00,
2013-07-31 02:42:00,67.8,67.2,29.32,East,90,0.0,0.0,98,0.08,,---,0.62,VWS V14.01,2013-07-31 07:42:00,
2013-07-31 02:47:00,68.4,67.8,29.32,East,90,0.0,0.0,98,0.04,,---,0.62,VWS V14.01,2013-07-31 07:47:00,
2013-07-31 02:52:00,68.4,67.8,29.32,East,90,0.0,0.0,98,0.04,,---,0.62,VWS V14.01,2013-07-31 07:52:00,
2013-07-31 02:57:00,68.5,68.0,29.32,East,90,0.0,0.0,98,0.04,,---,0.62,VWS V14.01,2013-07-31 07:57:00,
2013-07-31 03:02:00,68.7,68.1,29.32,East,90,1.3,1.6,98,0.04,,---,0.62,VWS V14.01,2013-07-31 08:02:00,
2013-07-31 03:07:00,68.7,68.1,29.32,East,90,0.0,0.0,98,0.04,,---,0.62,VWS V14.01,2013-07-31 08:07:00,
2013-07-31 03:12:00,68.7,68.1,29.29,East,90,0.0,0.0,98,0.04,,---,0.62,VWS V14.01,2013-07-31 08:12:00,
2013-07-31 03:17:00,68.9,68.3,29.29,East,90,0.0,0.0,98,0.00,,---,0.62,VWS V14.01,2013-07-31 08:17:00,
2013-07-31 03:22:00,68.9,68.3,29.29,East,90,2.0,2.2,98,0.00,,---,0.62,VWS V14.01,2013-07-31 08:22:00,
2013-07-31 03:27:00,69.1,68.5,29.29,East,90,0.0,0.0,98,0.00,,---,0.62,VWS V14.01,2013-07-31 08:27:00,
2013-07-31 03:32:00,69.1,68.5,29.29,East,90,0.0,0.0,98,0.00,,---,0.62,VWS V14.01,2013-07-31 08:32:00,
2013-07-31 03:37:00,69.1,68.5,29.29,East,90,0.0,0.0,98,0.00,,---,0.62,VWS V14.01,2013-07-31 08:37:00,
2013-07-31 03:42:00,69.1,68.5,29.29,East,90,0.9,1.1,98,0.00,,---,0.62,VWS V14.01,2013-07-31 08:42:00,
2013-07-31 03:47:00,69.1,68.5,29.29,East,90,1.1,1.1,98,0.00,,---,0.62,VWS V14.01,2013-07-31 08:47:00,
2013-07-31 03:52:00,69.1,68.5,29.29,East,90,1.6,1.6,98,0.00,,---,0.62,VWS V14.01,2013-07-31 08:52:00,
2013-07-31 03:57:00,69.3,68.7,29.26,East,90,0.0,0.0,98,0.00,,---,0.62,VWS V14.01,2013-07-31 08:57:00,
2013-07-31 04:02:00,69.3,68.7,29.26,East,90,0.0,0.0,98,0.00,,---,0.62,VWS V14.01,2013-07-31 09:02:00,
2013-07-31 04:07:00,69.4,68.8,29.26,WSW,248,0.0,0.0,98,0.00,,---,0.62,VWS V14.01,2013-07-31 09:07:00,
2013-07-31 04:12:00,69.6,69.0,29.26,WNW,292,3.8,3.8,98,0.00,,---,0.62,VWS V14.01,2013-07-31 09:12:00,
2013-07-31 04:17:00,69.6,69.0,29.26,ENE,68,2.2,3.8,98,0.00,,---,0.62,VWS V14.01,2013-07-31 09:17:00,
2013-07-31 04:22:00,69.3,68.7,29.32,South,180,0.0,0.0,98,0.50,,---,1.12,VWS V14.01,2013-07-31 09:22:00,
2013-07-31 04:27:00,69.3,68.7,29.32,ENE,68,0.0,0.0,98,0.54,,---,1.16,VWS V14.01,2013-07-31 09:27:00,
2013-07-31 04:32:00,69.4,68.8,29.32,NNE,22,0.9,0.9,98,0.58,,---,1.20,VWS V14.01,2013-07-31 09:32:00,
2013-07-31 04:37:00,69.3,68.7,29.32,NW,315,2.0,2.0,98,0.58,,---,1.20,VWS V14.01,2013-07-31 09:37:00,
2013-07-31 04:42:00,69.3,68.7,29.32,West,270,0.0,0.0,98,0.58,,---,1.20,VWS V14.01,2013-07-31 09:42:00,
2013-07-31 04:47:00,69.3,68.7,29.32,West,270,0.0,0.0,98,0.58,,---,1.20,VWS V14.01,2013-07-31 09:47:00,
2013-07-31 04:52:00,69.3,68.7,29.32,West,270,0.0,0.0,98,0.58,,---,1.20,VWS V14.01,2013-07-31 09:52:00,
2013-07-31 04:57:00,69.3,68.7,29.32,West,270,0.0,0.0,98,0.58,,---,1.20,VWS V14.01,2013-07-31 09:57:00,
2013-07-31 05:02:00,69.3,68.7,29.32,West,270,1.1,1.1,98,0.58,,---,1.20,VWS V14.01,2013-07-31 10:02:00,
2013-07-31 05:07:00,69.3,68.7,29.32,West,270,0.0,0.0,98,0.58,,---,1.20,VWS V14.01,2013-07-31 10:07:00,
2013-07-31 05:12:00,69.3,68.7,29.32,West,270,0.0,0.0,98,0.58,,---,1.20,VWS V14.01,2013-07-31 10:12:00,
2013-07-31 05:17:00,69.3,68.7,29.32,West,270,1.3,1.6,98,0.58,,---,1.20,VWS V14.01,2013-07-31 10:17:00,
2013-07-31 05:22:00,69.3,68.7,29.32,West,270,0.0,0.0,98,0.08,,---,1.20,VWS V14.01,2013-07-31 10:22:00,
2013-07-31 05:27:00,69.3,68.7,29.32,West,270,0.0,0.0,98,0.04,,---,1.20,VWS V14.01,2013-07-31 10:27:00,
2013-07-31 05:44:00,81.9,71.9,29.32,West,270,0.0,0.0,72,0.00,,---,1.20,VWS V14.01,2013-07-31 10:44:00,
2013-07-31 05:49:00,69.6,69.0,29.32,West,270,0.0,0.0,98,0.00,,---,1.20,VWS V14.01,2013-07-31 10:49:00,
2013-07-31 05:54:00,69.6,69.0,29.32,West,270,1.1,1.3,98,0.00,,---,1.20,VWS V14.01,2013-07-31 10:54:00,
2013-07-31 05:59:00,69.6,69.0,29.29,West,270,1.3,1.3,98,0.00,,---,1.20,VWS V14.01,2013-07-31 10:59:00,
2013-07-31 06:04:00,69.6,69.0,29.29,West,270,0.9,0.9,98,0.00,,---,1.20,VWS V14.01,2013-07-31 11:04:00,
2013-07-31 06:09:00,69.6,69.0,29.29,West,270,0.0,0.0,98,0.00,,---,1.20,VWS V14.01,2013-07-31 11:09:00,
2013-07-31 06:14:00,69.6,69.0,29.32,West,270,0.0,0.0,98,0.00,,---,1.20,VWS V14.01,2013-07-31 11:14:00,
2013-07-31 06:19:00,69.8,69.2,29.32,West,270,1.3,2.0,98,0.00,,---,1.20,VWS V14.01,2013-07-31 11:19:00,
2013-07-31 06:24:00,69.8,69.2,29.32,West,270,0.0,0.0,98,0.00,,---,1.20,VWS V14.01,2013-07-31 11:24:00,
2013-07-31 06:29:00,69.8,69.2,29.32,West,270,0.0,0.0,98,0.00,,---,1.20,VWS V14.01,2013-07-31 11:29:00,
2013-07-31 06:34:00,69.8,69.2,29.32,West,270,0.0,0.0,98,0.00,,---,1.20,VWS V14.01,2013-07-31 11:34:00,
2013-07-31 06:39:00,69.8,69.2,29.32,West,270,0.0,0.0,98,0.00,,---,1.20,VWS V14.01,2013-07-31 11:39:00,
2013-07-31 06:44:00,69.8,69.2,29.32,West,270,0.9,1.1,98,0.00,,---,1.20,VWS V14.01,2013-07-31 11:44:00,
2013-07-31 06:49:00,69.8,69.2,29.32,West,270,0.0,0.0,98,0.00,,---,1.20,VWS V14.01,2013-07-31 11:49:00,
2013-07-31 06:54:00,69.8,69.2,29.32,West,270,0.0,0.0,98,0.00,,---,13.36,VWS V14.01,2013-07-31 11:54:00,
2013-07-31 06:59:00,70.0,69.4,29.32,West,270,0.0,0.0,98,0.00,,---,13.36,VWS V14.01,2013-07-31 11:59:00,
2013-07-31 07:04:00,70.0,69.4,29.32,West,270,1.3,1.3,98,0.00,,---,13.36,VWS V14.01,2013-07-31 12:04:00,
2013-07-31 07:09:00,70.0,69.4,29.32,West,270,1.1,1.1,98,0.00,,---,13.36,VWS V14.01,2013-07-31 12:09:00,
2013-07-31 07:14:00,70.0,69.4,29.35,West,270,0.0,0.0,98,0.00,,---,13.36,VWS V14.01,2013-07-31 12:14:00,
2013-07-31 07:19:00,70.0,69.4,29.35,West,270,0.0,0.0,98,0.00,,---,13.36,VWS V14.01,2013-07-31 12:19:00,
2013-07-31 07:24:00,70.2,69.6,29.35,West,270,0.9,1.1,98,0.00,,---,13.36,VWS V14.01,2013-07-31 12:24:00,
2013-07-31 07:29:00,70.3,69.8,29.32,West,270,0.0,0.0,98,0.00,,---,13.36,VWS V14.01,2013-07-31 12:29:00,
2013-07-31 07:34:00,70.3,69.8,29.32,West,270,0.0,0.0,98,0.00,,---,13.36,VWS V14.01,2013-07-31 12:34:00,
2013-07-31 07:39:00,70.3,69.8,29.32,West,270,0.0,0.0,98,0.00,,---,13.36,VWS V14.01,2013-07-31 12:39:00,
2013-07-31 07:44:00,70.5,69.9,29.32,West,270,0.0,0.0,98,0.00,,---,13.36,VWS V14.01,2013-07-31 12:44:00,
2013-07-31 07:49:00,70.5,69.9,29.32,West,270,0.0,1.1,98,0.00,,---,13.36,VWS V14.01,2013-07-31 12:49:00,
2013-07-31 07:54:00,70.7,70.1,29.32,West,270,0.9,0.9,98,0.00,,---,13.36,VWS V14.01,2013-07-31 12:54:00,
2013-07-31 07:59:00,70.7,70.1,29.32,West,270,0.0,1.1,98,0.00,,---,13.36,VWS V14.01,2013-07-31 12:59:00,
2013-07-31 08:04:00,70.7,70.1,29.32,West,270,0.0,0.0,98,0.00,,---,13.36,VWS V14.01,2013-07-31 13:04:00,
2013-07-31 08:09:00,70.9,70.3,29.32,West,270,0.0,0.0,98,0.00,,---,13.36,VWS V14.01,2013-07-31 13:09:00,
2013-07-31 08:14:00,71.1,70.5,29.32,West,270,0.0,0.0,98,0.00,,---,13.36,VWS V14.01,2013-07-31 13:14:00,
2013-07-31 08:19:00,71.1,70.5,29.32,West,270,2.2,2.5,98,0.00,,---,13.36,VWS V14.01,2013-07-31 13:19:00,
2013-07-31 08:24:00,71.1,70.5,29.32,West,270,0.0,1.3,98,0.00,,---,13.36,VWS V14.01,2013-07-31 13:24:00,
2013-07-31 08:29:00,71.2,70.7,29.29,NE,45,0.0,0.0,98,0.00,,---,13.36,VWS V14.01,2013-07-31 13:29:00,
2013-07-31 08:34:00,71.4,70.8,29.29,NE,45,1.6,2.0,98,0.00,,---,13.36,VWS V14.01,2013-07-31 13:34:00,
2013-07-31 08:39:00,71.4,70.8,29.29,NW,315,1.3,2.2,98,0.00,,---,13.36,VWS V14.01,2013-07-31 13:39:00,
2013-07-31 08:44:00,71.6,71.0,29.32,NW,315,0.0,0.0,98,0.00,,---,13.36,VWS V14.01,2013-07-31 13:44:00,
2013-07-31 08:49:00,71.6,71.0,29.32,NW,315,1.6,1.6,98,0.00,,---,13.36,VWS V14.01,2013-07-31 13:49:00,
2013-07-31 08:54:00,71.6,71.0,29.32,East,90,0.0,458.5,98,0.00,,---,13.36,VWS V14.01,2013-07-31 13:54:00,
2013-07-31 08:59:00,71.6,71.0,29.32,East,90,1.6,1.6,98,0.00,,---,13.36,VWS V14.01,2013-07-31 13:59:00,
2013-07-31 09:04:00,71.8,71.2,29.32,East,90,2.2,2.5,98,0.00,,---,13.36,VWS V14.01,2013-07-31 14:04:00,
2013-07-31 09:09:00,72.0,71.4,29.32,ENE,68,1.1,1.1,98,0.00,,---,13.36,VWS V14.01,2013-07-31 14:09:00,
2013-07-31 09:14:00,72.1,71.6,29.32,ENE,68,0.0,0.0,98,0.00,,---,13.36,VWS V14.01,2013-07-31 14:14:00,
2013-07-31 09:19:00,72.9,72.3,29.32,ENE,68,0.0,0.0,98,0.00,,---,13.36,VWS V14.01,2013-07-31 14:19:00,
2013-07-31 09:24:00,72.9,72.3,29.32,ENE,68,0.0,0.0,98,0.00,,---,13.36,VWS V14.01,2013-07-31 14:24:00,
2013-07-31 09:29:00,72.9,72.3,29.32,ENE,68,0.0,0.0,98,0.00,,---,13.36,VWS V14.01,2013-07-31 14:29:00,
2013-07-31 09:34:00,72.7,72.1,29.32,ENE,68,1.1,1.1,98,0.00,,---,13.36,VWS V14.01,2013-07-31 14:34:00,
2013-07-31 09:39:00,72.3,71.4,29.32,ENE,68,0.0,0.0,97,0.00,,---,13.36,VWS V14.01,2013-07-31 14:39:00,
2013-07-31 09:44:00,72.3,71.4,29.32,ENE,68,0.9,2.0,97,0.00,,---,13.36,VWS V14.01,2013-07-31 14:44:00,
2013-07-31 09:49:00,72.1,71.2,29.32,ENE,68,0.0,0.0,97,0.00,,---,13.36,VWS V14.01,2013-07-31 14:49:00,
2013-07-31 09:54:00,72.0,71.1,29.32,ENE,68,0.9,1.6,97,0.00,,---,13.36,VWS V14.01,2013-07-31 14:54:00,
2013-07-31 09:59:00,72.0,71.1,29.32,NE,45,1.6,1.6,97,0.00,,---,13.36,VWS V14.01,2013-07-31 14:59:00,
2013-07-31 10:04:00,72.0,71.1,29.32,NE,45,0.0,0.9,97,0.00,,---,13.36,VWS V14.01,2013-07-31 15:04:00,
2013-07-31 10:09:00,72.0,71.1,29.32,NE,45,2.0,2.0,97,0.00,,---,13.36,VWS V14.01,2013-07-31 15:09:00,
2013-07-31 10:14:00,72.1,71.2,29.29,NE,45,0.0,0.0,97,0.00,,---,13.36,VWS V14.01,2013-07-31 15:14:00,
2013-07-31 10:19:00,72.3,71.4,29.29,NE,45,1.3,1.3,97,0.00,,---,13.36,VWS V14.01,2013-07-31 15:19:00,
2013-07-31 10:24:00,72.5,71.6,29.29,NE,45,0.0,0.0,97,0.00,,---,13.36,VWS V14.01,2013-07-31 15:24:00,
2013-07-31 10:29:00,72.9,72.0,29.29,NE,45,1.1,1.6,97,0.00,,---,13.36,VWS V14.01,2013-07-31 15:29:00,
2013-07-31 10:34:00,73.2,72.3,29.29,NE,45,0.0,0.0,97,0.00,,---,13.36,VWS V14.01,2013-07-31 15:34:00,
2013-07-31 10:39:00,73.6,72.7,29.29,NE,45,0.0,0.0,97,0.00,,---,13.36,VWS V14.01,2013-07-31 15:39:00,
2013-07-31 10:44:00,73.6,72.7,29.32,NE,45,0.0,0.0,97,0.00,,---,13.36,VWS V14.01,2013-07-31 15:44:00,
2013-07-31 10:49:00,73.9,73.0,29.32,NE,45,0.0,0.0,97,0.00,,---,13.36,VWS V14.01,2013-07-31 15:49:00,
2013-07-31 10:54:00,74.1,72.9,29.32,NW,315,0.0,0.0,96,0.00,,---,13.36,VWS V14.01,2013-07-31 15:54:00,
2013-07-31 10:59:00,74.7,73.4,29.29,NW,315,1.1,1.1,96,0.00,,---,13.36,VWS V14.01,2013-07-31 15:59:00,
2013-07-31 11:04:00,75.0,73.8,29.29,WNW,292,1.6,2.5,96,0.00,,---,13.36,VWS V14.01,2013-07-31 16:04:00,
2013-07-31 11:09:00,75.0,73.8,29.29,WNW,292,1.3,2.2,96,0.00,,---,13.36,VWS V14.01,2013-07-31 16:09:00,
2013-07-31 11:14:00,75.0,73.2,29.32,West,270,0.0,1.3,94,0.00,,---,13.36,VWS V14.01,2013-07-31 16:14:00,
2013-07-31 11:19:00,76.1,74.2,29.32,West,270,1.6,2.5,94,0.00,,---,13.36,VWS V14.01,2013-07-31 16:19:00,
2013-07-31 11:24:00,76.3,74.4,29.32,West,270,0.0,0.0,94,0.00,,---,13.36,VWS V14.01,2013-07-31 16:24:00,
2013-07-31 11:29:00,76.1,74.6,29.32,West,270,0.9,1.1,95,0.00,,---,13.36,VWS V14.01,2013-07-31 16:29:00,
2013-07-31 11:34:00,76.1,74.2,29.32,West,270,1.1,2.2,94,0.00,,---,13.36,VWS V14.01,2013-07-31 16:34:00,
2013-07-31 11:39:00,76.1,74.2,29.32,West,270,0.0,0.0,94,0.00,,---,13.36,VWS V14.01,2013-07-31 16:39:00,
2013-07-31 11:43:00,75.9,74.1,29.32,West,270,0.0,0.0,94,0.00,,---,13.36,VWS V14.01,2013-07-31 16:43:00,
2013-07-31 11:48:00,75.6,73.7,29.32,West,270,0.0,0.0,94,0.00,,---,13.36,VWS V14.01,2013-07-31 16:48:00,
2013-07-31 11:53:00,75.4,73.5,29.32,West,270,0.0,0.0,94,0.05,,---,13.41,VWS V14.01,2013-07-31 16:53:00,
2013-07-31 11:58:00,75.4,73.8,29.32,West,270,0.0,0.0,95,0.05,,---,13.41,VWS V14.01,2013-07-31 16:58:00,
2013-07-31 12:03:00,75.2,73.7,29.32,West,270,0.0,0.0,95,0.05,,---,13.41,VWS V14.01,2013-07-31 17:03:00,
2013-07-31 12:08:00,75.2,73.7,29.32,West,270,0.0,0.0,95,0.05,,---,13.41,VWS V14.01,2013-07-31 17:08:00,
2013-07-31 12:13:00,75.0,73.8,29.32,West,270,0.0,0.0,96,0.05,,---,13.41,VWS V14.01,2013-07-31 17:13:00,
2013-07-31 12:18:00,74.8,73.6,29.32,West,270,1.1,1.1,96,0.05,,---,13.41,VWS V14.01,2013-07-31 17:18:00,
2013-07-31 12:23:00,74.7,73.4,29.32,West,270,0.0,0.0,96,0.09,,---,13.45,VWS V14.01,2013-07-31 17:23:00,
2013-07-31 12:28:00,74.7,73.4,29.32,West,270,0.0,0.0,96,0.09,,---,13.45,VWS V14.01,2013-07-31 17:28:00,
2013-07-31 12:33:00,75.0,73.8,29.32,West,270,0.0,0.0,96,0.09,,---,13.45,VWS V14.01,2013-07-31 17:33:00,
2013-07-31 12:38:00,75.9,74.7,29.32,West,270,0.0,0.0,96,0.09,,---,13.45,VWS V14.01,2013-07-31 17:38:00,
2013-07-31 12:43:00,77.0,75.8,29.29,West,270,0.0,0.0,96,0.09,,---,13.45,VWS V14.01,2013-07-31 17:43:00,
2013-07-31 12:48:00,77.4,75.8,29.29,West,270,0.9,1.3,95,0.09,,---,13.45,VWS V14.01,2013-07-31 17:48:00,
2013-07-31 12:53:00,77.4,75.5,29.29,West,270,2.9,2.9,94,0.04,,---,13.45,VWS V14.01,2013-07-31 17:53:00,
2013-07-31 12:58:00,77.7,75.9,29.32,West,270,2.5,2.5,94,0.04,,---,13.45,VWS V14.01,2013-07-31 17:58:00,
2013-07-31 13:03:00,78.4,76.6,29.32,West,270,1.1,1.1,94,0.04,,---,13.45,VWS V14.01,2013-07-31 18:03:00,
2013-07-31 13:08:00,79.2,76.6,29.32,NW,315,1.3,2.2,92,0.04,,---,13.45,VWS V14.01,2013-07-31 18:08:00,
2013-07-31 13:13:00,79.9,77.7,29.32,NW,315,0.9,0.9,93,0.04,,---,13.45,VWS V14.01,2013-07-31 18:13:00,
2013-07-31 13:18:00,79.3,76.8,29.26,NW,315,0.0,0.0,92,0.04,,---,13.45,VWS V14.01,2013-07-31 18:18:00,
2013-07-31 13:23:00,79.9,77.3,29.26,NW,315,0.9,0.9,92,0.00,,---,13.45,VWS V14.01,2013-07-31 18:23:00,
2013-07-31 13:28:00,80.2,77.0,29.29,NW,315,1.6,1.6,90,0.00,,---,13.45,VWS V14.01,2013-07-31 18:28:00,
2013-07-31 13:33:00,81.0,78.1,29.29,NW,315,1.1,1.6,91,0.00,,---,13.45,VWS V14.01,2013-07-31 18:33:00,
2013-07-31 13:38:00,82.6,78.7,29.29,NW,315,1.1,1.1,88,0.00,,---,13.45,VWS V14.01,2013-07-31 18:38:00,
2013-07-31 13:43:00,82.9,78.3,29.26,West,270,1.3,1.6,86,0.00,,---,13.45,VWS V14.01,2013-07-31 18:43:00,
2013-07-31 13:48:00,84.6,79.9,29.26,West,270,2.5,2.5,86,0.00,,---,13.45,VWS V14.01,2013-07-31 18:48:00,
2013-07-31 13:53:00,85.8,80.4,29.26,West,270,1.3,1.6,84,0.00,,---,13.45,VWS V14.01,2013-07-31 18:53:00,
2013-07-31 13:58:00,86.4,79.5,29.23,North,0,2.0,2.7,80,0.00,,---,13.45,VWS V14.01,2013-07-31 18:58:00,
2013-07-31 14:03:00,85.5,76.6,29.23,NW,315,3.6,3.6,75,0.00,,---,13.45,VWS V14.01,2013-07-31 19:03:00,
2013-07-31 14:08:00,84.0,75.2,29.23,NW,315,1.6,3.8,75,0.00,,---,15.67,VWS V14.01,2013-07-31 19:08:00,
2013-07-31 14:13:00,82.9,75.0,29.23,West,270,2.0,3.6,77,0.00,,---,15.67,VWS V14.01,2013-07-31 19:13:00,
2013-07-31 14:18:00,82.2,75.1,29.23,WNW,292,1.6,2.2,79,0.00,,---,15.67,VWS V14.01,2013-07-31 19:18:00,
2013-07-31 14:23:00,82.2,75.8,29.23,WNW,292,1.3,1.3,81,0.00,,---,15.67,VWS V14.01,2013-07-31 19:23:00,
2013-07-31 14:28:00,82.9,75.8,29.26,WSW,248,1.6,4.9,79,0.00,,---,15.67,VWS V14.01,2013-07-31 19:28:00,
2013-07-31 14:33:00,82.9,75.8,29.26,WSW,248,2.0,5.8,79,0.00,,---,15.67,VWS V14.01,2013-07-31 19:33:00,
2013-07-31 14:38:00,85.1,77.1,29.26,WNW,292,5.4,7.4,77,0.00,,---,15.67,VWS V14.01,2013-07-31 19:38:00,
2013-07-31 14:43:00,85.8,76.6,29.26,WNW,292,1.3,2.0,74,0.00,,---,1.20,VWS V14.01,2013-07-31 19:43:00,
2013-07-31 14:48:00,86.2,76.9,29.26,West,270,4.0,4.0,74,0.00,,---,1.20,VWS V14.01,2013-07-31 19:48:00,
2013-07-31 14:53:00,85.8,77.0,29.26,West,270,1.1,1.1,75,0.00,,---,15.67,VWS V14.01,2013-07-31 19:53:00,
2013-07-31 14:58:00,85.1,76.3,29.26,West,270,1.1,2.7,75,0.00,,---,15.67,VWS V14.01,2013-07-31 19:58:00,
2013-07-31 15:03:00,84.9,76.1,29.26,NNW,338,2.0,2.5,75,0.00,,---,15.67,VWS V14.01,2013-07-31 20:03:00,
2013-07-31 15:08:00,85.1,76.7,29.26,West,270,2.2,2.2,76,0.00,,---,15.67,VWS V14.01,2013-07-31 20:08:00,
2013-07-31 15:13:00,84.9,75.7,29.26,West,270,1.1,2.2,74,0.00,,---,15.67,VWS V14.01,2013-07-31 20:13:00,
2013-07-31 15:18:00,85.5,76.2,29.26,West,270,2.5,2.5,74,0.00,,---,15.67,VWS V14.01,2013-07-31 20:18:00,
2013-07-31 15:23:00,85.5,77.0,29.26,West,270,0.0,0.9,76,0.00,,---,15.67,VWS V14.01,2013-07-31 20:23:00,
2013-07-31 15:28:00,85.1,75.9,29.23,NW,315,1.3,3.4,74,0.00,,---,15.67,VWS V14.01,2013-07-31 20:28:00,
2013-07-31 15:33:00,83.5,75.1,29.23,WNW,292,1.1,3.1,76,0.00,,---,15.67,VWS V14.01,2013-07-31 20:33:00,
2013-07-31 15:38:00,82.8,75.2,29.23,WNW,292,0.0,0.0,78,0.00,,---,1.20,VWS V14.01,2013-07-31 20:38:00,
2013-07-31 15:43:00,82.9,75.4,29.23,WNW,292,1.6,1.6,78,0.00,,---,15.67,VWS V14.01,2013-07-31 20:43:00,
2013-07-31 15:48:00,82.6,75.0,29.23,WNW,292,1.6,2.0,78,0.00,,---,15.67,VWS V14.01,2013-07-31 20:48:00,
2013-07-31 15:53:00,82.9,76.1,29.23,WNW,292,0.0,0.0,80,0.00,,---,15.67,VWS V14.01,2013-07-31 20:53:00,
2013-07-31 15:58:00,84.4,76.8,29.23,WNW,292,2.5,2.7,78,0.00,,---,15.67,VWS V14.01,2013-07-31 20:58:00,
2013-07-31 16:03:00,86.4,77.5,29.23,West,270,2.9,4.3,75,0.00,,---,15.67,VWS V14.01,2013-07-31 21:03:00,
2013-07-31 16:08:00,87.6,78.3,29.23,West,270,1.6,1.6,74,0.00,,---,15.67,VWS V14.01,2013-07-31 21:08:00,
2013-07-31 16:13:00,88.9,78.3,29.23,West,270,1.3,1.3,71,0.00,,---,15.67,VWS V14.01,2013-07-31 21:13:00,
2013-07-31 16:18:00,89.8,78.7,29.23,West,270,2.0,2.7,70,0.00,,---,15.67,VWS V14.01,2013-07-31 21:18:00,
2013-07-31 16:23:00,88.2,76.3,29.23,West,270,2.2,2.5,68,0.00,,---,15.67,VWS V14.01,2013-07-31 21:23:00,
2013-07-31 16:28:00,88.3,76.9,29.23,West,270,2.0,2.7,69,0.00,,---,15.67,VWS V14.01,2013-07-31 21:28:00,
2013-07-31 16:33:00,87.1,77.0,29.23,West,270,0.9,1.1,72,0.00,,---,15.67,VWS V14.01,2013-07-31 21:33:00,
2013-07-31 16:38:00,85.6,75.6,29.23,West,270,0.0,0.0,72,0.00,,---,15.67,VWS V14.01,2013-07-31 21:38:00,
2013-07-31 16:43:00,85.5,77.0,29.23,West,270,0.9,0.9,76,0.00,,---,15.67,VWS V14.01,2013-07-31 21:43:00,
2013-07-31 16:48:00,85.1,76.7,29.23,West,270,0.0,1.3,76,0.00,,---,15.67,VWS V14.01,2013-07-31 21:48:00,
2013-07-31 16:53:00,85.1,77.1,29.23,West,270,0.0,0.0,77,0.00,,---,15.67,VWS V14.01,2013-07-31 21:53:00,
2013-07-31 16:58:00,85.5,77.4,29.20,West,270,2.2,2.2,77,0.00,,---,15.67,VWS V14.01,2013-07-31 21:58:00,
2013-07-31 17:03:00,86.0,77.6,29.20,West,270,1.3,1.3,76,0.00,,---,15.67,VWS V14.01,2013-07-31 22:03:00,
2013-07-31 17:08:00,87.4,79.3,29.20,West,270,2.0,2.2,77,0.00,,---,15.67,VWS V14.01,2013-07-31 22:08:00,
2013-07-31 17:13:00,87.1,78.2,29.20,West,270,0.9,1.1,75,0.00,,---,15.67,VWS V14.01,2013-07-31 22:13:00,
2013-07-31 17:18:00,86.5,77.7,29.20,West,270,1.3,1.3,75,0.00,,---,15.67,VWS V14.01,2013-07-31 22:18:00,
2013-07-31 17:23:00,85.8,78.2,29.20,West,270,0.0,0.0,78,0.00,,---,1.20,VWS V14.01,2013-07-31 22:23:00,
2013-07-31 17:28:00,85.1,77.5,29.20,West,270,0.0,0.0,78,0.00,,---,15.67,VWS V14.01,2013-07-31 22:28:00,
2013-07-31 17:33:00,84.6,76.9,29.20,West,270,0.0,0.0,78,0.00,,---,15.67,VWS V14.01,2013-07-31 22:33:00,
2013-07-31 17:38:00,83.8,76.2,29.20,West,270,2.7,2.7,78,0.00,,---,15.67,VWS V14.01,2013-07-31 22:38:00,
2013-07-31 17:43:00,83.7,76.1,29.20,West,270,1.3,1.3,78,0.00,,---,15.67,VWS V14.01,2013-07-31 22:43:00,
2013-07-31 17:48:00,83.3,75.7,29.20,West,270,0.0,1.6,78,0.00,,---,15.67,VWS V14.01,2013-07-31 22:48:00,
2013-07-31 17:53:00,82.8,76.3,29.20,West,270,0.0,0.0,81,0.00,,---,15.67,VWS V14.01,2013-07-31 22:53:00,
2013-07-31 17:58:00,82.2,76.6,29.20,West,270,0.0,0.0,83,0.00,,---,15.67,VWS V14.01,2013-07-31 22:58:00,
2013-07-31 18:03:00,81.7,76.0,29.20,West,270,2.0,2.5,83,0.00,,---,15.67,VWS V14.01,2013-07-31 23:03:00,
2013-07-31 18:08:00,81.5,75.8,29.20,West,270,0.0,0.0,83,0.00,,---,15.67,VWS V14.01,2013-07-31 23:08:00,
2013-07-31 18:13:00,81.1,75.8,29.20,West,270,0.0,0.0,84,0.00,,---,15.67,VWS V14.01,2013-07-31 23:13:00,
2013-07-31 18:18:00,80.4,75.5,29.20,West,270,0.0,0.0,85,0.00,,---,15.67,VWS V14.01,2013-07-31 23:18:00,
2013-07-31 18:23:00,79.9,75.3,29.20,West,270,0.0,0.0,86,0.00,,---,15.67,VWS V14.01,2013-07-31 23:23:00,
2013-07-31 18:28:00,79.5,75.3,29.20,West,270,0.0,0.0,87,0.00,,---,1.20,VWS V14.01,2013-07-31 23:28:00,
2013-07-31 18:33:00,79.2,75.0,29.20,West,270,0.0,0.0,87,0.00,,---,15.67,VWS V14.01,2013-07-31 23:33:00,
2013-07-31 18:38:00,78.8,74.6,29.20,West,270,0.0,0.0,87,0.00,,---,15.67,VWS V14.01,2013-07-31 23:38:00,
2013-07-31 18:43:00,78.6,74.4,29.20,West,270,0.0,0.0,87,0.00,,---,15.67,VWS V14.01,2013-07-31 23:43:00,
2013-07-31 18:48:00,78.6,74.8,29.20,SW,225,0.0,0.0,88,0.00,,---,15.67,VWS V14.01,2013-07-31 23:48:00,
2013-07-31 18:53:00,78.8,74.6,29.20,SW,225,0.0,0.0,87,0.00,,---,15.67,VWS V14.01,2013-07-31 23:53:00,
2013-07-31 18:58:00,79.0,74.8,29.20,SW,225,0.0,0.0,87,0.00,,---,15.67,VWS V14.01,2013-07-31 23:58:00,
2013-07-31 19:03:00,79.0,74.8,29.20,SW,225,0.0,0.9,87,0.00,,---,15.67,VWS V14.01,2013-08-01 00:03:00,
2013-07-31 19:08:00,78.8,74.6,29.20,SW,225,0.0,0.0,87,0.00,,---,15.67,VWS V14.01,2013-08-01 00:08:00,
2013-07-31 19:13:00,78.8,74.6,29.17,SW,225,0.0,0.0,87,0.00,,---,15.67,VWS V14.01,2013-08-01 00:13:00,
2013-07-31 19:18:00,77.9,74.4,29.17,SW,225,0.0,0.0,89,0.00,,---,15.67,VWS V14.01,2013-08-01 00:18:00,
2013-07-31 19:22:00,77.9,74.4,29.17,SSW,202,0.9,1.1,89,0.00,,---,1.20,VWS V14.01,2013-08-01 00:22:00,
2013-07-31 19:27:00,77.9,74.4,29.17,SSW,202,0.0,0.9,89,0.00,,---,1.20,VWS V14.01,2013-08-01 00:27:00,
2013-07-31 19:32:00,77.5,74.4,29.17,SSW,202,2.7,2.7,90,0.00,,---,15.67,VWS V14.01,2013-08-01 00:32:00,
2013-07-31 19:37:00,77.4,73.9,29.17,South,180,0.0,0.0,89,0.00,,---,15.67,VWS V14.01,2013-08-01 00:37:00,
2013-07-31 19:42:00,77.0,73.8,29.17,South,180,0.9,1.3,90,0.00,,---,15.67,VWS V14.01,2013-08-01 00:42:00,
2013-07-31 19:48:00,76.3,73.5,29.17,South,180,0.0,0.0,91,0.00,,---,15.67,VWS V14.01,2013-08-01 00:48:00,
2013-07-31 19:53:00,75.9,73.1,29.17,South,180,0.9,0.9,91,0.00,,---,15.67,VWS V14.01,2013-08-01 00:53:00,
2013-07-31 19:58:00,74.8,71.7,29.20,South,180,0.9,0.9,90,0.00,,---,15.67,VWS V14.01,2013-08-01 00:58:00,
2013-07-31 20:03:00,73.9,70.5,29.20,South,180,0.0,0.0,89,0.00,,---,15.67,VWS V14.01,2013-08-01 01:03:00,
2013-07-31 20:08:00,73.6,70.1,29.20,South,180,0.0,0.0,89,0.00,,---,15.67,VWS V14.01,2013-08-01 01:08:00,
2013-07-31 20:12:00,73.2,69.8,29.20,South,180,0.9,1.6,89,0.00,,---,15.67,VWS V14.01,2013-08-01 01:12:00,
2013-07-31 20:17:00,72.7,69.3,29.20,South,180,0.0,0.0,89,0.00,,---,15.67,VWS V14.01,2013-08-01 01:17:00,
2013-07-31 20:22:00,72.1,69.1,29.20,South,180,0.0,0.0,90,0.00,,---,15.67,VWS V14.01,2013-08-01 01:22:00,
2013-07-31 20:28:00,72.0,68.9,29.20,South,180,0.0,0.0,90,0.00,,---,15.67,VWS V14.01,2013-08-01 01:28:00,
2013-07-31 20:33:00,71.6,68.8,29.20,South,180,0.0,0.0,91,0.00,,---,1.20,VWS V14.01,2013-08-01 01:33:00,
2013-07-31 20:38:00,71.2,68.8,29.20,South,180,0.0,0.9,92,0.00,,---,15.67,VWS V14.01,2013-08-01 01:38:00,
2013-07-31 20:42:00,70.9,68.4,29.20,South,180,1.3,1.3,92,0.00,,---,1.20,VWS V14.01,2013-08-01 01:42:00,
2013-07-31 20:47:00,70.7,68.6,29.20,South,180,0.0,0.0,93,0.00,,---,15.67,VWS V14.01,2013-08-01 01:47:00,
2013-07-31 20:52:00,70.7,68.9,29.20,South,180,0.0,0.0,94,0.00,,---,15.67,VWS V14.01,2013-08-01 01:52:00,
2013-07-31 20:57:00,70.7,68.9,29.20,South,180,0.0,0.0,94,0.00,,---,15.67,VWS V14.01,2013-08-01 01:57:00,
2013-07-31 21:02:00,70.7,68.9,29.20,South,180,0.0,0.0,94,0.00,,---,15.67,VWS V14.01,2013-08-01 02:02:00,
2013-07-31 21:07:00,70.7,69.2,29.20,South,180,0.0,0.0,95,0.00,,---,15.67,VWS V14.01,2013-08-01 02:07:00,
2013-07-31 21:12:00,70.9,69.4,29.20,South,180,0.0,0.0,95,0.00,,---,15.67,VWS V14.01,2013-08-01 02:12:00,
2013-07-31 21:17:00,70.9,69.4,29.20,South,180,0.0,0.0,95,0.00,,---,15.67,VWS V14.01,2013-08-01 02:17:00,
2013-07-31 21:22:00,70.9,69.4,29.20,South,180,0.0,0.0,95,0.00,,---,15.67,VWS V14.01,2013-08-01 02:22:00,
2013-07-31 21:27:00,71.2,69.4,29.20,South,180,0.0,0.0,94,0.00,,---,15.67,VWS V14.01,2013-08-01 02:27:00,
2013-07-31 21:32:00,71.4,69.6,29.20,South,180,0.0,0.0,94,0.00,,---,15.67,VWS V14.01,2013-08-01 02:32:00,
2013-07-31 21:37:00,71.6,69.8,29.20,South,180,0.0,0.0,94,0.00,,---,15.67,VWS V14.01,2013-08-01 02:37:00,
2013-07-31 21:42:00,71.4,69.9,29.20,South,180,1.3,1.3,95,0.00,,---,15.67,VWS V14.01,2013-08-01 02:42:00,
2013-07-31 21:47:00,71.1,69.6,29.20,South,180,1.6,1.6,95,0.00,,---,15.67,VWS V14.01,2013-08-01 02:47:00,
2013-07-31 21:52:00,70.9,69.4,29.20,South,180,0.0,0.0,95,0.00,,---,15.67,VWS V14.01,2013-08-01 02:52:00,
2013-07-31 21:57:00,70.9,69.4,29.23,South,180,1.3,1.3,95,0.00,,---,15.67,VWS V14.01,2013-08-01 02:57:00,
2013-07-31 22:02:00,70.9,69.7,29.23,South,180,1.3,1.3,96,0.00,,---,1.20,VWS V14.01,2013-08-01 03:02:00,
2013-07-31 22:07:00,70.9,69.7,29.23,South,180,1.3,1.3,96,0.00,,---,15.67,VWS V14.01,2013-08-01 03:07:00,
2013-07-31 22:12:00,70.9,69.7,29.23,South,180,0.0,0.0,96,0.00,,---,15.67,VWS V14.01,2013-08-01 03:12:00,
2013-07-31 22:17:00,71.1,69.9,29.23,South,180,0.0,0.0,96,0.00,,---,15.67,VWS V14.01,2013-08-01 03:17:00,
2013-07-31 22:22:00,71.2,69.7,29.23,South,180,0.0,0.0,95,0.00,,---,15.67,VWS V14.01,2013-08-01 03:22:00,
2013-07-31 22:27:00,71.2,70.1,29.23,South,180,0.0,0.0,96,0.00,,---,15.67,VWS V14.01,2013-08-01 03:27:00,
2013-07-31 22:32:00,71.4,69.9,29.23,South,180,0.0,0.0,95,0.00,,---,15.67,VWS V14.01,2013-08-01 03:32:00,
2013-07-31 22:37:00,71.6,70.1,29.23,South,180,0.0,0.0,95,0.00,,---,15.67,VWS V14.01,2013-08-01 03:37:00,
2013-07-31 22:42:00,71.8,70.3,29.23,South,180,0.0,0.9,95,0.00,,---,15.67,VWS V14.01,2013-08-01 03:42:00,
2013-07-31 22:47:00,71.8,70.3,29.23,South,180,0.0,0.0,95,0.00,,---,15.67,VWS V14.01,2013-08-01 03:47:00,
2013-07-31 22:52:00,71.8,70.3,29.23,South,180,0.0,0.0,95,0.00,,---,15.67,VWS V14.01,2013-08-01 03:52:00,
2013-07-31 22:57:00,71.6,70.1,29.23,South,180,0.0,0.0,95,0.00,,---,15.67,VWS V14.01,2013-08-01 03:57:00,
2013-07-31 23:01:00,71.6,70.1,29.20,South,180,0.0,0.0,95,0.00,,---,15.67,VWS V14.01,2013-08-01 04:01:00,
2013-07-31 23:02:00,71.6,70.1,29.20,South,180,0.0,0.0,95,0.00,,---,15.67,VWS V14.01,2013-08-01 04:02:00,
2013-07-31 23:07:00,71.4,69.9,29.20,South,180,0.0,0.0,95,0.00,,---,15.67,VWS V14.01,2013-08-01 04:07:00,
2013-07-31 23:12:00,71.2,70.1,29.23,South,180,0.0,0.0,96,0.00,,---,15.67,VWS V14.01,2013-08-01 04:12:00,
2013-07-31 23:17:00,71.2,69.7,29.23,South,180,0.0,0.0,95,0.00,,---,15.67,VWS V14.01,2013-08-01 04:17:00,
2013-07-31 23:22:00,71.1,69.9,29.23,South,180,0.0,0.0,96,0.00,,---,15.67,VWS V14.01,2013-08-01 04:22:00,
2013-07-31 23:27:00,70.7,69.5,29.23,South,180,0.0,0.0,96,0.00,,---,15.67,VWS V14.01,2013-08-01 04:27:00,
2013-07-31 23:32:00,70.5,69.3,29.23,South,180,0.0,0.0,96,0.00,,---,1.20,VWS V14.01,2013-08-01 04:32:00,
2013-07-31 23:37:00,70.5,69.3,29.23,South,180,0.0,0.0,96,0.00,,---,15.67,VWS V14.01,2013-08-01 04:37:00,
2013-07-31 23:42:00,70.9,69.7,29.23,WSW,248,1.1,3.4,96,0.00,,---,15.67,VWS V14.01,2013-08-01 04:42:00,
2013-07-31 23:47:00,71.2,70.1,29.23,SE,135,1.6,3.1,96,0.00,,---,15.67,VWS V14.01,2013-08-01 04:47:00,
2013-07-31 23:52:00,71.4,70.2,29.23,SW,225,2.2,2.5,96,0.00,,---,1.20,VWS V14.01,2013-08-01 04:52:00,
2013-07-31 23:57:00,71.6,70.4,29.23,West,270,2.0,2.0,96,0.00,,---,15.67,VWS V14.01,2013-08-01 04:57:00,